[[{"header":{"parameterUnit":"m.s-1","parameterCategory":1,"la1":30.2991,"la2":30.254,"lo1":-89.0895,"lo2":-89.0444,"dy":0.0017,"dx":0.0017,"nx":28,"ny":28,"refTime":"2023-11-08T03:00:00:Z","depth":0,"parameterNumber":2,"parameterNumberName":"U-component_of_WINDS"},"data":[0,0,0,0,0,0,0,0,0,0,0,0,0,0,0,0,0,0,0,0,0,0,0,0,0,0,0,0,0,0,0,0,0,0,0,0,0,0,0,0,0,0,0,0,0,0,0,0,0,0,0,0,0,0,0,0,0,0,-0.4572,-0.4571,0,-0.4491,-0.449,-0.4489,-0.4432,-0.4432,-0.4431,-0.4431,-0.4348,-0.4346,-0.4344,0,0,0,0,0,0,0,0,0,0,0,0,0,-0.4676,-0.4674,-0.4572,-0.4571,-0.457,-0.4491,-0.449,-0.4488,-0.4432,-0.4432,-0.4431,-0.4431,-0.4348,-0.4346,-0.4344,0,0,0,0,0,0,0,0,0,0,0,0,0,-0.4617,-0.4674,-0.4572,-0.4532,-0.4528,-0.4491,-0.4489,-0.4488,-0.4432,-0.4432,-0.4431,-0.4431,-0.4349,-0.4346,-0.4344,-0.4339,0,0,-0.4335,-0.4334,0,0,0,0,0,0,0,0,-0.462,-0.4613,-0.4539,-0.4535,-0.453,-0.4471,-0.4496,-0.4438,-0.4433,-0.4469,-0.4431,-0.443,-0.4389,-0.4383,-0.4369,-0.4336,-0.4332,-0.4335,-0.4333,-0.4332,-0.4331,0,0,0,0,0,0,0,-0.4624,-0.4616,-0.454,-0.4538,-0.4532,-0.4518,-0.4509,-0.4485,-0.4433,-0.4466,-0.4461,-0.4452,-0.4386,-0.4372,-0.4367,-0.4331,-0.4335,-0.4333,-0.4331,-0.433,-0.4286,-0.4287,0,0,0,0,0,0,-0.4635,-0.462,-0.4542,-0.4537,-0.4574,-0.4516,-0.4506,-0.449,-0.4434,-0.4424,-0.4453,-0.445,-0.4377,-0.437,-0.4364,-0.4353,-0.4332,-0.433,-0.4328,-0.4286,-0.4286,-0.4287,0,0,0,0,0,0,-0.4637,-0.4628,-0.4545,-0.4577,-0.4565,-0.4515,-0.4498,-0.4489,-0.4475,-0.4424,-0.4415,-0.4448,-0.4376,-0.4367,-0.4345,-0.4349,-0.4328,-0.4326,-0.4285,-0.4286,-0.4287,-0.4333,0,0,0,0,0,0,-0.464,-0.463,-0.4628,-0.4578,-0.4564,-0.4529,-0.4498,-0.4488,-0.447,-0.4465,-0.4417,-0.4408,-0.4375,-0.435,-0.4342,-0.4345,-0.4324,-0.4285,-0.4286,-0.4286,-0.4331,-0.4335,-0.4339,0,0,0,0,0,-0.4644,-0.4645,-0.4629,-0.4619,-0.4561,-0.453,-0.4522,-0.4484,-0.4471,-0.4468,-0.4435,-0.4409,-0.435,-0.4348,-0.4339,-0.4341,-0.4284,-0.4285,-0.4286,-0.4329,-0.4334,-0.4339,0,0,0,0,0,0,-0.4698,-0.4638,-0.4619,-0.4603,-0.4572,-0.452,-0.4516,-0.4491,-0.4463,-0.446,-0.4414,-0.4403,-0.4385,-0.4361,-0.4359,-0.4333,-0.4314,-0.4313,-0.4349,-0.4354,-0.4358,-0.4363,-0.4321,0,0,0,0,0,-0.4708,-0.4688,-0.4636,-0.4627,-0.4613,-0.4567,-0.4552,-0.4525,-0.4491,-0.4477,-0.4443,-0.441,-0.4384,-0.4368,-0.4341,-0.4327,-0.4314,-0.4324,-0.4328,-0.4332,-0.4331,-0.4319,-0.4322,-0.429,-0.429,-0.429,0,0,-0.4729,-0.4693,-0.4683,-0.4637,-0.461,-0.4589,-0.4556,-0.4536,-0.4519,-0.4474,-0.445,-0.4424,-0.4384,-0.4366,-0.4356,-0.4345,-0.4337,-0.4333,-0.4336,-0.4334,-0.4321,-0.4324,-0.4327,-0.4291,-0.4291,-0.4291,0,0,-0.4755,-0.4727,-0.4715,-0.4688,-0.4647,-0.4616,-0.4613,-0.4565,-0.4545,-0.452,-0.4485,-0.4464,-0.4421,-0.4393,-0.4373,-0.4386,-0.4361,-0.4379,-0.44,-0.4389,-0.4391,-0.4393,-0.4396,-0.4398,-0.4379,-0.4379,-0.4379,0,-0.4786,-0.4753,-0.4713,-0.4693,-0.4673,-0.4631,-0.4617,-0.4593,-0.4545,-0.4531,-0.452,-0.4462,-0.4433,-0.4406,-0.4409,-0.4395,-0.4389,-0.4384,-0.4394,-0.4396,-0.4397,-0.4399,-0.44,-0.4382,-0.4381,-0.4381,-0.4381,0,-0.4792,-0.477,-0.4765,-0.4718,-0.4698,-0.4682,-0.4638,-0.4622,-0.4596,-0.4567,-0.4541,-0.4503,-0.4467,-0.4459,-0.4435,-0.4427,-0.4422,-0.4403,-0.4383,-0.4403,-0.4404,-0.4405,-0.4385,-0.4384,-0.4383,-0.4383,0,0,-0.4851,-0.4781,-0.4779,-0.4757,-0.4707,-0.4688,-0.4669,-0.4633,-0.4619,-0.4587,-0.4569,-0.4532,-0.4513,-0.4491,-0.4463,-0.4453,-0.4463,-0.4435,-0.4433,-0.444,-0.445,-0.4464,-0.4465,-0.4446,-0.4446,-0.4446,-0.4453,0,-0.4868,-0.4832,-0.4794,-0.4771,-0.4748,-0.4706,-0.469,-0.4657,-0.4628,-0.4604,-0.4572,-0.4545,-0.4524,-0.451,-0.4499,-0.4464,-0.4464,-0.4463,-0.4427,-0.4426,-0.4437,-0.4466,-0.4481,-0.4489,-0.4453,-0.4453,-0.4453,0,-0.4884,-0.4852,-0.4827,-0.4776,-0.4765,-0.4751,-0.4713,-0.4692,-0.4652,-0.4632,-0.4606,-0.4575,-0.4552,-0.4535,-0.4501,-0.4501,-0.4484,-0.4465,-0.4464,-0.4458,-0.444,-0.4459,-0.4491,-0.4492,-0.4454,-0.4454,-0.4454,0,-0.4927,-0.4878,-0.4856,-0.4838,-0.4779,-0.4769,-0.4745,-0.4705,-0.4684,-0.4652,-0.4638,-0.4603,-0.4584,-0.4557,-0.4517,-0.4509,-0.4486,-0.4467,-0.4467,-0.4468,-0.4464,-0.4464,-0.4492,-0.4455,-0.4455,-0.4455,-0.4455,0,-0.4949,-0.4935,-0.4874,-0.486,-0.4842,-0.4798,-0.4781,-0.4752,-0.4716,-0.4695,-0.4657,-0.4638,-0.4588,-0.4562,-0.4531,-0.4506,-0.4498,-0.448,-0.4472,-0.4482,-0.4485,-0.447,-0.4468,-0.4456,-0.4456,-0.4455,-0.4455,0,-0.4994,-0.4953,-0.4925,-0.4871,-0.4857,-0.4846,-0.4799,-0.4783,-0.4752,-0.4725,-0.4717,-0.4667,-0.4635,-0.4592,-0.4548,-0.4526,-0.4505,-0.4493,-0.4518,-0.4513,-0.4515,-0.4515,-0.4532,-0.4531,-0.4498,-0.4498,-0.4499,0,-0.501,-0.4998,-0.4942,-0.4925,-0.4901,-0.4874,-0.4853,-0.4808,-0.4787,-0.474,-0.473,-0.4695,-0.4664,-0.4614,-0.4574,-0.4538,-0.4524,-0.4532,-0.4518,-0.4529,-0.4522,-0.4522,-0.452,-0.4536,-0.4536,-0.4537,-0.4537,0,-0.5043,-0.5023,-0.4994,-0.4957,-0.4932,-0.4901,-0.4868,-0.4856,-0.4805,-0.4783,-0.4749,-0.4725,-0.4678,-0.4643,-0.4602,-0.4575,-0.4547,-0.4542,-0.454,-0.455,-0.4565,-0.4555,-0.4526,-0.4542,-0.4541,-0.4541,-0.4541,-0.4541,-0.5073,-0.5059,-0.5016,-0.4984,-0.4955,-0.4924,-0.4906,-0.4871,-0.4843,-0.48,-0.4776,-0.4742,-0.4701,-0.4643,-0.4617,-0.4589,-0.4579,-0.4576,-0.4575,-0.4575,-0.4578,-0.457,-0.4582,-0.4582,-0.4582,-0.4581,-0.4581,0,-0.5102,-0.5072,-0.5043,-0.4997,-0.4972,-0.4947,-0.4909,-0.4889,-0.486,-0.4824,-0.4794,-0.4754,-0.4719,-0.4675,-0.4637,-0.4623,-0.4609,-0.4614,-0.4614,-0.4608,-0.459,-0.4595,-0.4626,-0.4626,-0.4626,-0.4626,-0.4626,-0.4626,-0.5114,-0.5088,-0.5062,-0.502,-0.4991,-0.4957,-0.4937,-0.4908,-0.4879,-0.4836,-0.4806,-0.4778,-0.4738,-0.4696,-0.4662,-0.465,-0.4637,-0.4646,-0.463,-0.4614,-0.461,-0.4606,-0.461,-0.4644,-0.4644,-0.4649,-0.4649,-0.4649]},{"header":{"parameterUnit":"m.s-1","parameterCategory":1,"la1":30.2991,"la2":30.254,"lo1":-89.0895,"lo2":-89.0444,"dy":0.0017,"dx":0.0017,"nx":28,"ny":28,"refTime":"2023-11-08T03:00:00:Z","depth":0,"parameterNumber":3,"parameterNumberName":"V-component_of_WINDS"},"data":[0,0,0,0,0,0,0,0,0,0,0,0,0,0,0,0,0,0,0,0,0,0,0,0,0,0,0,0,0,0,0,0,0,0,0,0,0,0,0,0,0,0,0,0,0,0,0,0,0,0,0,0,0,0,0,0,0,0,2.7317,2.7317,0,2.7306,2.7306,2.7306,2.7349,2.735,2.7351,2.7353,2.7336,2.7335,2.7333,0,0,0,0,0,0,0,0,0,0,0,0,0,2.7371,2.737,2.7317,2.7317,2.7316,2.7306,2.7306,2.7306,2.7349,2.735,2.7352,2.7353,2.7337,2.7335,2.7333,0,0,0,0,0,0,0,0,0,0,0,0,0,2.7352,2.7369,2.7317,2.7337,2.7338,2.7306,2.7306,2.7305,2.7348,2.735,2.7352,2.7354,2.7338,2.7335,2.7333,2.7279,0,0,2.7325,2.7324,0,0,0,0,0,0,0,0,2.7353,2.735,2.7334,2.7335,2.7337,2.7331,2.7319,2.7296,2.7348,2.7344,2.7353,2.7355,2.7333,2.7331,2.7324,2.7278,2.7277,2.7325,2.7324,2.7322,2.7322,0,0,0,0,0,0,0,2.7354,2.7351,2.7312,2.7334,2.7336,2.7345,2.7345,2.7315,2.7327,2.7345,2.7348,2.7346,2.7334,2.7326,2.7324,2.7277,2.7325,2.7323,2.7321,2.732,2.7188,2.7186,0,0,0,0,0,0,2.7354,2.7352,2.7313,2.7312,2.735,2.7342,2.7342,2.7331,2.7328,2.733,2.7345,2.7348,2.733,2.7327,2.7324,2.7262,2.7322,2.732,2.7319,2.719,2.7188,2.7185,0,0,0,0,0,0,2.7355,2.735,2.7313,2.7333,2.7329,2.734,2.7327,2.733,2.7322,2.7328,2.733,2.7335,2.7331,2.7327,2.729,2.7262,2.7319,2.7317,2.7192,2.7189,2.7186,2.7137,0,0,0,0,0,0,2.7356,2.735,2.733,2.7332,2.7328,2.7281,2.7325,2.7328,2.7319,2.7323,2.732,2.7321,2.7332,2.7294,2.7288,2.726,2.7315,2.7195,2.7191,2.7187,2.7141,2.7133,2.7125,0,0,0,0,0,2.7358,2.7315,2.7329,2.7324,2.7304,2.7279,2.7276,2.7292,2.7316,2.7296,2.73,2.7321,2.7266,2.729,2.7283,2.7254,2.7197,2.7192,2.7188,2.7145,2.7134,2.7126,0,0,0,0,0,0,2.7307,2.7316,2.7331,2.7288,2.7283,2.7287,2.7262,2.728,2.7267,2.7271,2.729,2.7289,2.7249,2.7247,2.7274,2.7203,2.7235,2.7229,2.7205,2.7195,2.7187,2.7189,2.7313,0,0,0,0,0,2.7292,2.7273,2.728,2.7241,2.7238,2.725,2.724,2.7253,2.7248,2.7245,2.7246,2.7239,2.722,2.7207,2.719,2.7141,2.7142,2.7118,2.711,2.7103,2.7098,2.7074,2.7064,2.717,2.717,2.717,0,0,2.7258,2.7261,2.7247,2.7232,2.7229,2.7208,2.7248,2.7224,2.7208,2.7241,2.7207,2.7208,2.7201,2.7158,2.7139,2.7156,2.7069,2.7097,2.7092,2.709,2.7068,2.7058,2.7049,2.7167,2.7168,2.7168,0,0,2.7187,2.7187,2.7155,2.7153,2.7149,2.7158,2.715,2.7152,2.7154,2.7121,2.7146,2.7127,2.7093,2.7088,2.7081,2.701,2.7029,2.7004,2.6962,2.6938,2.693,2.6922,2.6898,2.6889,2.6998,2.6998,2.6998,0,2.7146,2.7117,2.7136,2.7111,2.7104,2.7135,2.7103,2.7099,2.7089,2.7083,2.7102,2.7063,2.706,2.7018,2.7001,2.6993,2.6985,2.7004,2.693,2.6923,2.6916,2.6893,2.6884,2.6995,2.6996,2.6996,2.6996,0,2.7067,2.7046,2.7021,2.7014,2.7003,2.6975,2.6989,2.6976,2.699,2.6997,2.6963,2.6961,2.6945,2.6936,2.6948,2.6895,2.6906,2.6927,2.696,2.6903,2.6882,2.6873,2.6991,2.6992,2.6993,2.6994,0,0,2.6963,2.6969,2.6959,2.6957,2.6956,2.694,2.6913,2.69,2.6889,2.6881,2.6859,2.6831,2.6852,2.6843,2.6855,2.6834,2.678,2.6858,2.6858,2.6845,2.6723,2.6709,2.6698,2.6792,2.6791,2.6789,2.6724,0,2.6895,2.6851,2.6868,2.6822,2.6804,2.6834,2.681,2.6807,2.6812,2.6797,2.6802,2.6783,2.681,2.6806,2.6786,2.6791,2.6756,2.6795,2.6772,2.6771,2.6774,2.6687,2.6671,2.661,2.6716,2.6715,2.6714,0,2.6809,2.6801,2.6754,2.6758,2.6751,2.673,2.672,2.6705,2.6702,2.6707,2.6699,2.6716,2.6689,2.6723,2.6686,2.6713,2.6704,2.6705,2.6703,2.6702,2.6739,2.6685,2.659,2.6581,2.6701,2.6702,2.6703,0,2.674,2.6717,2.6687,2.6683,2.6687,2.6672,2.6672,2.6671,2.6663,2.6653,2.6648,2.6635,2.6627,2.6616,2.6629,2.6652,2.6592,2.6625,2.6595,2.6595,2.6582,2.6583,2.6486,2.6574,2.6574,2.6574,2.6575,0,2.6662,2.6633,2.6656,2.6637,2.6605,2.6625,2.6592,2.6596,2.6595,2.6577,2.6601,2.6583,2.6601,2.6585,2.6594,2.6564,2.6559,2.6563,2.6566,2.6562,2.6561,2.6557,2.6562,2.6572,2.6573,2.6573,2.6573,0,2.658,2.6594,2.6564,2.6571,2.6572,2.6548,2.6553,2.6536,2.6544,2.6521,2.6517,2.6528,2.6511,2.6523,2.6504,2.6511,2.6471,2.6479,2.6473,2.6475,2.6445,2.6449,2.6343,2.6331,2.6426,2.6425,2.6424,0,2.653,2.6509,2.6515,2.6506,2.6505,2.6489,2.6482,2.65,2.6491,2.6487,2.647,2.6455,2.6444,2.6415,2.6421,2.6407,2.6416,2.638,2.6414,2.6411,2.6417,2.6419,2.6417,2.6373,2.6372,2.6371,2.637,0,2.6441,2.645,2.6439,2.643,2.6421,2.6414,2.641,2.64,2.6419,2.6408,2.6391,2.6383,2.6366,2.6351,2.634,2.6339,2.6358,2.636,2.6352,2.6348,2.6346,2.6348,2.6455,2.6362,2.6363,2.6363,2.6364,2.6364,2.6375,2.6358,2.636,2.6347,2.6346,2.6342,2.6327,2.6333,2.6321,2.631,2.6321,2.6301,2.6299,2.6287,2.6285,2.6269,2.6284,2.6273,2.627,2.6267,2.6264,2.6348,2.6267,2.6267,2.6267,2.6268,2.6268,0,2.6288,2.6291,2.6279,2.6274,2.6264,2.6284,2.628,2.627,2.6253,2.6251,2.6241,2.6222,2.6208,2.6214,2.6201,2.6188,2.6196,2.6184,2.6186,2.6186,2.6251,2.6259,2.6178,2.6178,2.6178,2.6178,2.6178,2.6178,2.6242,2.6215,2.6224,2.6197,2.62,2.6183,2.6179,2.6175,2.6174,2.6153,2.6143,2.6147,2.6148,2.6136,2.6124,2.6126,2.6121,2.6106,2.6111,2.6172,2.6181,2.6189,2.6198,2.6105,2.6105,2.6048,2.6048,2.6047]}]]